Location: Central Falls
(41.8900°N, 71.3929°W)
Time: 02:41:06
(UTC+00:00)

Vanguard 2 Rocket - Pass Details

Date: 03 December 2023
Orbit: 555 x 3309 km, 32.9° (Epoch: 01 March)

Event Time Altitude Azimuth Distance (km) Brightness Sun altitude
Rises 19:24:39 0° 233° (SW) 6,346 12.9 15.0°
Reaches altitude 10° 19:28:34 10° 228° (SW) 5,609 13.5 14.5°
Maximum altitude 19:46:09 53° 158° (SSE) 3,782 10.4 12.3°
Drops below altitude 10° 20:04:28 10° 89° (E) 5,842 10.6 9.8°
Sets 20:08:38 0° 85° (E) 6,615 10.8 9.2°
